Location: Aranbee
(34.0885°N, 118.2342°W)
Time: 06:55:44
(UTC+00:00)

Explorer 7 - Pass Details

Date: 03 August 2021
Orbit: 484 x 676 km, 50.3° (Epoch: 23 September)

Event Time Altitude Azimuth Distance (km) Brightness Sun altitude
Exits shadow 11:45:07 27° 270° (W) 961 7.6 -15.6°
Maximum altitude 11:46:41 43° 324° (NW) 698 7.3 -15.3°
Drops below altitude 10° 11:50:20 10° 37° (NE) 1,699 10.5 -14.7°
Sets 11:52:39 0° 44° (NE) 2,607 12.0 -14.3°
